[[{"header":{"parameterUnit":"m.s-1","parameterCategory":1,"la1":30.2992,"la2":30.254,"lo1":-89.0895,"lo2":-89.0443,"dy":0.0025,"dx":0.0025,"nx":19,"ny":19,"refTime":"2026-03-18T03:00:00:Z","depth":0,"parameterNumber":2,"parameterNumberName":"U-component_of_WINDS"},"data":[0,0,0,-1.2446,-1.2447,-1.2505,-1.2506,-1.2599,-1.26,0,0,0,0,0,0,0,0,0,0,0,-1.2438,-1.2439,-1.2446,-1.2448,-1.2505,-1.2506,-1.2599,-1.26,0,0,0,0,0,0,0,0,0,0,0,-1.2438,-1.2439,-1.244,-1.2448,-1.2505,-1.2506,-1.2599,-1.2549,0,0,0,0,0,0,0,0,0,0,-1.2489,-1.2491,-1.2439,-1.244,-1.2448,-1.2505,-1.2506,-1.2546,-1.2552,-1.2581,0,-1.2607,0,-1.2605,-1.2608,-1.2608,0,0,0,-1.2441,-1.2486,-1.2493,-1.244,-1.2449,-1.2505,-1.2477,-1.2549,-1.2556,-1.2589,-1.2608,-1.2611,-1.2607,-1.2608,-1.2609,-1.2794,-1.2796,0,0,-1.2438,-1.2455,-1.2489,-1.2498,-1.2488,-1.2476,-1.2479,-1.2553,-1.2576,-1.2609,-1.2613,-1.2608,-1.2609,-1.261,-1.2793,-1.2795,0,0,0,-1.2433,-1.2453,-1.2457,-1.2494,-1.2503,-1.2477,-1.2482,-1.2573,-1.2573,-1.2614,-1.2609,-1.261,-1.2611,-1.2792,-1.2794,-1.2869,0,0,0,-1.2431,-1.245,-1.2456,-1.2467,-1.2502,-1.2538,-1.25,-1.2568,-1.2575,-1.2609,-1.261,-1.2612,-1.2791,-1.2793,-1.2864,-1.2902,0,0,0,-1.2431,-1.245,-1.2461,-1.2468,-1.2493,-1.2537,-1.2541,-1.2569,-1.2573,-1.2608,-1.2612,-1.279,-1.2792,-1.2859,-1.2894,-1.2956,0,0,0,-1.2438,-1.2527,-1.2463,-1.2561,-1.2493,-1.2582,-1.254,-1.2606,-1.2645,-1.261,-1.2791,-1.2794,-1.2858,-1.289,-1.2952,-1.3012,-1.3038,0,0,-1.256,-1.2542,-1.2599,-1.2543,-1.2648,-1.2572,-1.2688,-1.2708,-1.2697,-1.2763,-1.2767,-1.2865,-1.2894,-1.2955,-1.3178,-1.3199,0,0,0,-1.2644,-1.2685,-1.2709,-1.2746,-1.2763,-1.2781,-1.2782,-1.279,-1.2845,-1.2734,-1.2903,-1.292,-1.2955,-1.2983,-1.3001,-1.3031,-1.2807,-1.2807,-1.2806,-1.2842,-1.2821,-1.2914,-1.2902,-1.2939,-1.2939,-1.2968,-1.2979,-1.2948,-1.2989,-1.3008,-1.3146,-1.3179,-1.3192,-1.3224,-1.3038,-1.3038,-1.3038,-1.3038,-1.302,-1.3076,-1.3033,-1.3107,-1.3087,-1.315,-1.3155,-1.3131,-1.3189,-1.3129,-1.3159,-1.3096,-1.3216,-1.3243,-1.3044,-1.3043,-1.3042,-1.3042,-1.3041,-1.3148,-1.3171,-1.3179,-1.3231,-1.3275,-1.326,-1.3317,-1.3296,-1.3277,-1.3307,-1.3326,-1.3325,-1.3322,-1.3317,-1.3318,-1.3318,-1.3319,-1.3319,-1.3319,-1.3279,-1.3284,-1.3334,-1.336,-1.3382,-1.3409,-1.3411,-1.3433,-1.3452,-1.3433,-1.3433,-1.34,-1.3231,-1.3189,-1.3327,-1.3325,-1.3325,-1.3324,-1.3323,-1.3468,-1.3422,-1.3499,-1.3521,-1.3552,-1.3598,-1.357,-1.3617,-1.3632,-1.3661,-1.3622,-1.35,-1.3481,-1.3467,-1.3432,-1.3624,-1.3624,-1.3624,-1.3624,-1.3577,-1.3565,-1.364,-1.3677,-1.3711,-1.3694,-1.3785,-1.3789,-1.3785,-1.3794,-1.3763,-1.3716,-1.3702,-1.3691,-1.3672,-1.364,-1.3881,-1.3881,-1.3881,-1.3694,-1.3684,-1.3764,-1.3759,-1.3781,-1.3802,-1.3887,-1.3934,-1.392,-1.3891,-1.3801,-1.379,-1.3714,-1.3689,-1.3658,-1.3629,-1.3569,0,0]},{"header":{"parameterUnit":"m.s-1","parameterCategory":1,"la1":30.2992,"la2":30.254,"lo1":-89.0895,"lo2":-89.0443,"dy":0.0025,"dx":0.0025,"nx":19,"ny":19,"refTime":"2026-03-18T03:00:00:Z","depth":0,"parameterNumber":3,"parameterNumberName":"V-component_of_WINDS"},"data":[0,0,0,2.9156,2.9156,2.9153,2.9153,2.9144,2.9144,0,0,0,0,0,0,0,0,0,0,0,2.9155,2.9155,2.9156,2.9156,2.9153,2.9153,2.9144,2.9144,0,0,0,0,0,0,0,0,0,0,0,2.9155,2.9155,2.9155,2.9156,2.9153,2.9153,2.9144,2.9148,0,0,0,0,0,0,0,0,0,0,2.9152,2.9149,2.9155,2.9155,2.9156,2.9153,2.9153,2.9148,2.9148,2.9144,0,2.914,0,2.9142,2.9143,2.9143,0,0,0,2.9157,2.915,2.9151,2.9155,2.9156,2.9153,2.9155,2.9148,2.9147,2.9143,2.914,2.914,2.9142,2.9143,2.9143,2.9117,2.9117,0,0,2.9158,2.9154,2.9151,2.915,2.9151,2.9155,2.9155,2.9148,2.9144,2.914,2.914,2.9142,2.9143,2.9143,2.9117,2.9117,0,0,0,2.9157,2.9154,2.9155,2.9151,2.915,2.9155,2.9154,2.9144,2.9145,2.914,2.9142,2.9143,2.9143,2.9118,2.9117,2.9104,0,0,0,2.9158,2.9153,2.9155,2.9152,2.915,2.9148,2.9151,2.9146,2.9145,2.9142,2.9143,2.9142,2.9118,2.9117,2.9104,2.9097,0,0,0,2.9156,2.9153,2.9152,2.9152,2.9151,2.9148,2.9148,2.9146,2.9146,2.9143,2.9142,2.9118,2.9117,2.9105,2.9099,2.9088,0,0,0,2.9153,2.914,2.9152,2.9138,2.9151,2.914,2.9148,2.9141,2.9136,2.9143,2.9118,2.9117,2.9105,2.9099,2.9089,2.9078,2.9073,0,0,2.9135,2.9138,2.913,2.914,2.9127,2.9141,2.9125,2.9125,2.9128,2.912,2.912,2.9104,2.9099,2.9088,2.9052,2.9048,0,0,0,2.9123,2.9117,2.9114,2.911,2.911,2.9109,2.9112,2.9112,2.9106,2.9124,2.9099,2.9096,2.909,2.9084,2.9081,2.9075,2.9115,2.9115,2.9115,2.9089,2.9094,2.9081,2.9086,2.9082,2.9086,2.9082,2.9083,2.909,2.9084,2.908,2.9058,2.9051,2.9049,2.9043,2.9077,2.9077,2.9076,2.9076,2.906,2.9052,2.9062,2.9052,2.9058,2.905,2.9052,2.9057,2.905,2.9061,2.9056,2.9065,2.9045,2.904,2.9075,2.9076,2.9076,2.9076,2.9076,2.9037,2.9034,2.9035,2.9029,2.9024,2.903,2.9023,2.9028,2.9034,2.9029,2.9026,2.9026,2.9025,2.9027,2.9027,2.9027,2.9027,2.9027,2.9027,2.9011,2.9013,2.9006,2.9005,2.9003,2.9001,2.9005,2.9003,2.9002,2.9006,2.9006,2.9012,2.9043,2.9049,2.9026,2.9026,2.9026,2.9026,2.9026,2.8977,2.8986,2.8975,2.8973,2.8973,2.8967,2.8975,2.897,2.8969,2.8965,2.8973,2.8995,2.8998,2.9001,2.9006,2.8973,2.8973,2.8973,2.8973,2.8956,2.8959,2.8949,2.8945,2.8943,2.8949,2.8935,2.8938,2.8942,2.8941,2.8947,2.8955,2.8958,2.896,2.8963,2.8968,2.8926,2.8926,2.8926,2.8934,2.8937,2.8925,2.893,2.893,2.8929,2.8916,2.891,2.8917,2.8924,2.894,2.8942,2.8955,2.896,2.8965,2.8971,2.8979,0,0]}]]